Weather in Elovo

Russia / Perm Krai     57°02′48″N   54°55′17″E
temp.,
°C
wind,
m/s
gust,
m/s
humid.,
%
clouds,
%
prec.,
mm/h
press.,
hPa
HPBL,
m
28 february, sun
sun2823:00−13e61094100 0.8 1005400
02:00−15ene599597 0.3 1004307
05:00−15ene599599 0.5 1005327
08:00−16ne5994100 0.1 1005348
11:00−15ne699299 0.3 1006400
14:00−13ne5891100 0.1 1006493
17:00−12ne5891100 0.3 1008531
20:00−14nne5994100 0.1 1010364
1 march, mon
mon123:00−14ne589495 0.3 1011321
02:00−16ne479678 0.1 1013201
05:00−17nne369677 0.1 1015181
08:00−19nne369972 0.0 1016108
11:00−16nne359376 0.1 1018304
14:00−12nne238598 0.0 1017480
17:00−12nw228899 0.1 1018443
20:00−17wsw129897 0.0 101720
2 march, tue
tue223:00−18sw349752 0.0 101737
02:00−19ssw4910052 0.0 1014159
05:00−18ssw6129476 0.0 1012276
08:00−18s71296100 0.2 1008327
11:00−16s81395100 0.9 1006421
14:00−12s81393100 0.9 1002554
17:00−10s71292100 1.4 1000549
20:00−10s61294100 0.5 999431
3 march, wed
wed323:00−8s61294100 1.3 998372
02:00−7s3896100 1.3 997240
05:00−8wnw2298100 1.8 99727
08:00−12wnw239790 0.0 99723
11:00−7w359594 0.1 998251
14:00−3w5791100 0.1 999715
17:00−4wnw6889100 0.3 1000830
20:00−7w4119699 0.2 1001400
4 march, thu
thu423:00−11w489694 0.3 1003129
02:00−12w369788 0.1 1003128
05:00−12wsw359690 0.2 1003123
08:00−13wsw369691 0.1 1003125
11:00−10sw479590 0.2 1003287
14:00−6ssw6991100 0.1 1001624
17:00−6ssw71191100 0.1 999639
20:00−6ssw71494100 0.7 995803